Flag for Jordan Weather past 2 weeks in Madaba, Jordan

Now
91 °F

Clear.


Feels Like: 88 °F
Forecast: 67 / 90 °F
Wind: 12 mph from Northwest

Location: Queen Alia Airport

Current Time: Sep 2, 2015 at 6:56:00 PM

Latest Report: Sep 2, 2015 at 6:00 PM


Visibility: 5 mi

Pressure: 29.92 "Hg (27.40 "Hg at 788m altitude)

Humidity: 23%

Dew point: 48 °F

Location of MadabaLocation

Historic Weather in Madaba — Graph

°F

Madaba temperature yesterday

Maximum temperature yesterday: 90 °F (at 4:00 PM)
Minimum temperature yesterday: 59 °F (at 5:00 AM)
Average temperature yesterday: 75 °F

Past Weeks' High & Low Weather Summary

 TemperatureHumidityPressure
High100 °F (Aug 18, 6:00 PM)94% (Aug 27, 4:00 AM)30.04 "Hg (Aug 27, 4:00 AM)
Low57 °F (Aug 29, 7:00 AM)17% (Aug 20, 3:00 PM)29.83 "Hg (Aug 18, 6:00 PM)
Average78 °F51%29.93 "Hg
* Reported Aug 18 6:00 PM — Sep 2 5:00 PM, Madaba, Weather by CustomWeather, © 2015

Note: Actual official high and low records may vary slightly from our data, if they occured in-between our weather recording intervals... More about our weather records

Advertising

Madaba weather history for previous 24 hours

 ConditionsComfort  
Time TempWeatherWind HumidityBarometerVisibility
5:00 PM
Wed, Sep 2
95 °FClear.14 mph19%29.92 "Hg5 mi
4:00 PM95 °FClear.14 mph22%29.95 "Hg5 mi
3:00 PM97 °FClear.7 mph18%29.95 "Hg5 mi
2:00 PM95 °FClear.7 mph20%30.01 "Hg4 mi
1:00 PM93 °FClear.7 mph21%30.01 "Hg4 mi
12:00 PM91 °FClear.5 mph24%30.01 "Hg4 mi
11:00 AM86 °FClear.6 mph33%30.01 "Hg4 mi
10:00 AM81 °FClear.No wind42%30.01 "Hg4 mi
9:00 AM73 °FClear.No wind57%29.98 "Hg4 mi
8:00 AM68 °FClear.No wind64%29.98 "Hg4 mi
6:00 AM61 °FClear.6 mph77%29.98 "Hg4 mi
4:00 AM66 °FClear.6 mph73%29.98 "Hg5 mi
3:00 AM68 °FClear.6 mph73%29.98 "Hg5 mi
2:00 AM70 °FClear.6 mph69%29.98 "Hg5 mi
12:00 AM75 °FClear.7 mph65%29.98 "Hg5 mi
11:00 PM
Tue, Sep 1
77 °FClear.6 mph61%29.98 "Hg5 mi
10:00 PM79 °FClear.6 mph58%29.98 "Hg5 mi
9:00 PM81 °FClear.9 mph54%29.98 "Hg5 mi
8:00 PM82 °FClear.12 mph48%29.98 "Hg5 mi
7:00 PM84 °FClear.13 mph43%29.95 "Hg5 mi
6:00 PM88 °FClear.13 mph33%29.95 "Hg5 mi
Weather by CustomWeather, © 2015

See weather overviewHow to use our weather pages